SL-12 DEB

Satellite information

Favourite Embed

Satellite Type and Status

DEBRISIN ORBIT

Key statistics

Satellite SL-12 DEB at a glance.

Uptime

14588

Days in orbit

Revolutions

≈ 14.0

Per day

Orbit

LEO

Low Earth Orbit

Inclination

66.6

Latest

Satellite identification and parameters

Extended collection of information and parameters for SL-12 DEB.

Object identification

Identified? True

Debris? True

Object name: SL-12 DEB

International designator: 1985-042K

Object number (NORAD): 18767

Object ID (CCSDS): 18767

Country: COMMONWEALTH OF INDEPENDENT STATES (CIS)

Current information (Y/N): Y

RCS size: SMALL

Orbital parameters

Period: 102.587 minutes

Inclination: 66.5846 deg

SMA: 7259.202 km

Apoapsis: 977.382 km

Periapsis: 784.752 km

RAAN: 178.1073 deg

Eccentricy: 0.013268

Argument of periapsis: 160.5211 deg

Mean anomaly: 200.1013 deg

Mean motion: 14.036842 rev/day

Mean motion (dot): 0.00001496 rev/day2

B* drag term: 0.00092643 1/REarth

Two-line elements (TLE)

Creation date: May 8, 2025, 3:01 a.m.

Reference frame: TEME

Reference center: EARTH

Epoch: May 7, 2025, 11:15 a.m. UTC

TLE line 0: 0 SL-12 DEB

TLE line 1: 1 18767U 85042K 25127.46897761 .00001496 00000-0 92643-3 0 9990

TLE line 2: 2 18767 66.5846 178.1073 0132680 160.5211 200.1013 14.03684200893778

Live tracking on map

Real-time ground track for satellite SL-12 DEB.

In-orbit conjunctions

A list of the most updated potential collisions computed for object SL-12 DEB.

Target Orbit TCA Probability of collision Miss distance Type
THOR AGENA D R/B SSO 2025-04-28 05:38:54 0.0002930541 326.0 (m) ROCKET BODY
COSMOS 887 LEO 2024-12-24 13:28:55 0.0009669178 175.0 (m) PAYLOAD
CZ-6A DEB SSO 2024-06-12 22:26:27 0.0003518651 53.0 (m) DEBRIS

Associated space launch

Second generation ELING satellite

SL-12 DEB was lifted into orbit during the mission ‘Proton | Tselina-2 2’, on board a Proton space rocket.

The launch took place on May 30, 1985, 2:59 p.m. from 200/40.

For more information about the launch, click the button.

Launch to space Proton | Tselina-2 2
Proton | Tselina-2 2

Agency: N/A

Status: Launch Successful

Launch date: May 30, 1985, 2:59 p.m. UTC

Rocket: Proton

Launch pad: 200/40

Location: Baikonur Cosmodrome, Republic of Kazakhstan

...

Latest news about this satellite

There are no fresh news available about this satellite. Check back as we update our databases every day.


Newsletter sign-up

Weekly statistics, charts and insights to help you stay on top of the space industry.